* Astronomy

Members Login
Username 
 
Password 
    Remember Me  
Post Info TOPIC: Asteroid 2007 BP102


L

Posts: 131433
Date:
Asteroid 2007 BP102
Permalink  
 


Orbital elements:
2007 BP102
Epoch 2011 Feb. 8.0 TT = JDT 2455600.5                  MPC
M   3.62062              (2000.0)            P               Q
n   0.00847249     Peri.  125.30846     -0.65367966     -0.40007309
a  23.8302449      Node    45.22754     -0.44570670     -0.48246952
e   0.2563060      Incl.   64.80548     +0.61159499     -0.77920773
P 116.33           H   10.7           G   0.15           U   5

MPEC 2011 - H24



__________________
Page 1 of 1  sorted by
Quick Reply

Please log in to post quick replies.



Create your own FREE Forum
Report Abuse
Powered by ActiveBoard